When you browse on this site, cookies collect data to enhance your experience and personalize the content and advertising you see.
Visit our Privacy Policy to learn more. By continuing to use the site, you agree to this use of cookies and data.
  • In Hungary
  • List of Countries
  • For 7 days
  • Water Temperature
  • Weather Map
  • News
  • Weather Widgets
  • user-avatar
    Login

    Hourly Weather Cheb

    Today, 25 August, Sunday

    Time Temperature Precipitation Wind Pressure Humidity
    00:00 +19°C° 0 mm 2 mps 724 mmHg 89%
    01:00 +18°C° 0 mm 2 mps 724 mmHg 90%
    02:00 +18°C° 0 mm 2 mps 724 mmHg 91%
    03:00 +19°C° 0 mm 1 mps 723 mmHg 92%
    04:00 +18°C° 0 mm 1 mps 723 mmHg 93%
    05:00 +19°C° 0 mm 1 mps 724 mmHg 91%
    06:00 +19°C° 0 mm 2 mps 724 mmHg 88%
    07:00 +20°C° 0 mm 2 mps 724 mmHg 83%
    08:00 +23°C° 0 mm 2 mps 724 mmHg 76%
    09:00 +24°C° 0 mm 3 mps 724 mmHg 69%
    10:00 +26°C° 0 mm 3 mps 725 mmHg 62%
    11:00 +27°C° 0 mm 3 mps 724 mmHg 59%
    12:00 +28°C° 0 mm 3 mps 724 mmHg 55%
    13:00 +29°C° 0 mm 3 mps 724 mmHg 51%
    14:00 +29°C° 0.2 mm 3 mps 724 mmHg 52%
    15:00 +29°C° 0.2 mm 3 mps 724 mmHg 54%
    16:00 +28°C° 0.2 mm 3 mps 724 mmHg 55%
    17:00 +26°C° 0.7 mm 2 mps 724 mmHg 63%
    18:00 +25°C° 0.7 mm 2 mps 724 mmHg 72%
    19:00 +23°C° 0.7 mm 2 mps 723 mmHg 80%
    20:00 +21°C° 0.4 mm 2 mps 723 mmHg 83%
    21:00 +21°C° 0.4 mm 1 mps 724 mmHg 85%
    22:00 +20°C° 0.4 mm 1 mps 724 mmHg 88%
    23:00 +20°C° 0.1 mm 1 mps 724 mmHg 89%

    Tomorrow, 26 August, Monday

    Time Temperature Precipitation Wind Pressure Humidity
    00:00 +19°C° 0.1 mm 2 mps 724 mmHg 89%
    01:00 +19°C° 0.1 mm 2 mps 724 mmHg 90%
    02:00 +19°C° 0 mm 2 mps 724 mmHg 91%
    03:00 +19°C° 0 mm 1 mps 723 mmHg 91%
    04:00 +19°C° 0 mm 1 mps 723 mmHg 92%
    05:00 +20°C° 0 mm 1 mps 723 mmHg 90%
    06:00 +20°C° 0 mm 1 mps 723 mmHg 88%
    07:00 +21°C° 0 mm 1 mps 724 mmHg 86%
    08:00 +23°C° 0.1 mm 2 mps 724 mmHg 79%
    09:00 +25°C° 0.1 mm 2 mps 724 mmHg 72%
    10:00 +26°C° 0.1 mm 3 mps 724 mmHg 64%
    11:00 +27°C° 0.6 mm 3 mps 724 mmHg 62%
    12:00 +28°C° 0.6 mm 3 mps 724 mmHg 60%
    13:00 +28°C° 0.6 mm 3 mps 724 mmHg 58%
    14:00 +28°C° 1.2 mm 3 mps 723 mmHg 60%
    15:00 +28°C° 1.2 mm 2 mps 723 mmHg 63%
    16:00 +28°C° 1.2 mm 2 mps 723 mmHg 66%
    17:00 +26°C° 1 mm 2 mps 722 mmHg 71%
    18:00 +24°C° 1 mm 2 mps 722 mmHg 76%
    19:00 +23°C° 1 mm 1 mps 722 mmHg 81%
    20:00 +22°C° 0.3 mm 1 mps 722 mmHg 84%
    21:00 +21°C° 0.3 mm 1 mps 722 mmHg 86%
    22:00 +21°C° 0.3 mm 1 mps 722 mmHg 89%
    23:00 +20°C° 0 mm 1 mps 722 mmHg 90%

    Day after tomorrow, 27 August, Tuesday

    Time Temperature Precipitation Wind Pressure Humidity
    00:00 +20°C° 0 mm 1 mps 722 mmHg 91%
    01:00 +20°C° 0 mm 1 mps 722 mmHg 92%
    02:00 +19°C° 0 mm 1 mps 722 mmHg 92%
    03:00 +19°C° 0 mm 1 mps 722 mmHg 93%
    04:00 +19°C° 0 mm 1 mps 722 mmHg 93%
    05:00 +20°C° 0 mm 1 mps 722 mmHg 92%
    06:00 +20°C° 0 mm 1 mps 722 mmHg 91%
    07:00 +21°C° 0 mm 1 mps 722 mmHg 89%
    08:00 +23°C° 0 mm 1 mps 722 mmHg 82%
    09:00 +24°C° 0 mm 1 mps 723 mmHg 75%
    10:00 +26°C° 0 mm 2 mps 723 mmHg 68%
    11:00 +27°C° 0.7 mm 2 mps 723 mmHg 64%
    12:00 +28°C° 0.7 mm 2 mps 723 mmHg 60%
    13:00 +29°C° 0.7 mm 2 mps 723 mmHg 56%
    14:00 +29°C° 0.8 mm 1 mps 722 mmHg 57%
    15:00 +29°C° 0.8 mm 1 mps 722 mmHg 59%
    16:00 +28°C° 0.8 mm 1 mps 722 mmHg 61%
    17:00 +27°C° 0.1 mm 1 mps 722 mmHg 66%
    18:00 +25°C° 0.1 mm 1 mps 721 mmHg 72%
    19:00 +23°C° 0.1 mm 1 mps 721 mmHg 77%
    20:00 +22°C° 0 mm 1 mps 721 mmHg 79%
    21:00 +22°C° 0 mm 1 mps 721 mmHg 81%
    22:00 +21°C° 0 mm 1 mps 721 mmHg 83%
    23:00 +20°C° 0 mm 1 mps 721 mmHg 84%

    28 August, Wednesday

    Time Temperature Precipitation Wind Pressure Humidity
    00:00 +20°C° 0 mm 1 mps 721 mmHg 85%
    01:00 +18°C° 0 mm 0 mps 721 mmHg 86%
    02:00 +19°C° 0 mm 1 mps 721 mmHg 87%
    03:00 +19°C° 0 mm 1 mps 721 mmHg 87%
    04:00 +19°C° 0 mm 1 mps 721 mmHg 88%
    05:00 +20°C° 0 mm 1 mps 721 mmHg 86%
    06:00 +20°C° 0 mm 1 mps 722 mmHg 83%
    07:00 +21°C° 0 mm 1 mps 722 mmHg 81%
    08:00 +23°C° 0 mm 1 mps 722 mmHg 74%
    09:00 +25°C° 0 mm 1 mps 722 mmHg 66%
    10:00 +27°C° 0 mm 1 mps 722 mmHg 59%
    11:00 +28°C° 0 mm 1 mps 722 mmHg 54%
    12:00 +29°C° 0 mm 1 mps 722 mmHg 50%
    13:00 +30°C° 0 mm 1 mps 722 mmHg 45%
    14:00 +30°C° 0 mm 1 mps 722 mmHg 45%
    15:00 +30°C° 0 mm 1 mps 722 mmHg 44%
    16:00 +30°C° 0 mm 1 mps 722 mmHg 44%
    17:00 +28°C° 0 mm 1 mps 721 mmHg 50%
    18:00 +24°C° 0 mm 0 mps 721 mmHg 57%
    19:00 +22°C° 0 mm 0 mps 721 mmHg 64%
    20:00 +22°C° 0 mm 0 mps 721 mmHg 65%
    21:00 +21°C° 0 mm 0 mps 721 mmHg 66%
    22:00 +21°C° 0 mm 0 mps 721 mmHg 67%
    23:00 +20°C° 0 mm 0 mps 721 mmHg 68%

    29 August, Thursday

    Time Temperature Precipitation Wind Pressure Humidity
    00:00 +20°C° 0 mm 0 mps 721 mmHg 68%
    01:00 +20°C° 0 mm 0 mps 721 mmHg 69%
    02:00 +19°C° 0.2 mm 0 mps 721 mmHg 71%
    03:00 +19°C° 0.2 mm 0 mps 721 mmHg 74%
    04:00 +21°C° 0.2 mm 1 mps 721 mmHg 77%
    05:00 +21°C° 0.1 mm 1 mps 721 mmHg 80%
    06:00 +21°C° 0.1 mm 1 mps 721 mmHg 83%
    07:00 +21°C° 0.1 mm 1 mps 721 mmHg 86%
    08:00 +21°C° 0 mm 1 mps 722 mmHg 84%
    09:00 +22°C° 0 mm 1 mps 722 mmHg 83%
    10:00 +22°C° 0 mm 1 mps 722 mmHg 81%
    11:00 +24°C° 0.4 mm 1 mps 722 mmHg 75%
    12:00 +25°C° 0.4 mm 1 mps 722 mmHg 70%
    13:00 +26°C° 0.4 mm 1 mps 723 mmHg 64%
    14:00 +26°C° 0.2 mm 1 mps 723 mmHg 63%
    15:00 +27°C° 0.2 mm 1 mps 723 mmHg 62%
    16:00 +27°C° 0.2 mm 1 mps 723 mmHg 61%
    17:00 +25°C° 0.4 mm 1 mps 723 mmHg 68%
    18:00 +23°C° 0.4 mm 1 mps 722 mmHg 74%
    19:00 +20°C° 0.4 mm 0 mps 722 mmHg 81%
    20:00 +19°C° 0.1 mm 0 mps 723 mmHg 83%
    21:00 +18°C° 0.1 mm 0 mps 723 mmHg 85%
    22:00 +18°C° 0.1 mm 0 mps 723 mmHg 87%
    23:00 +20°C° 0.1 mm 1 mps 723 mmHg 89%

    30 August, Friday

    Time Temperature Precipitation Wind Pressure Humidity
    00:00 +19°C° 0.1 mm 1 mps 724 mmHg 90%
    01:00 +19°C° 0.1 mm 1 mps 724 mmHg 92%
    02:00 +18°C° 0 mm 1 mps 724 mmHg 94%
    03:00 +18°C° 0 mm 1 mps 724 mmHg 95%
    04:00 +18°C° 0 mm 1 mps 724 mmHg 97%
    05:00 +19°C° 0 mm 1 mps 724 mmHg 95%
    06:00 +19°C° 0 mm 1 mps 725 mmHg 94%
    07:00 +20°C° 0 mm 1 mps 725 mmHg 93%
    08:00 +21°C° 0 mm 1 mps 726 mmHg 87%
    09:00 +22°C° 0 mm 1 mps 726 mmHg 81%
    10:00 +24°C° 0 mm 1 mps 726 mmHg 76%
    11:00 +25°C° 0.2 mm 1 mps 726 mmHg 71%
    12:00 +26°C° 0.2 mm 1 mps 726 mmHg 66%
    13:00 +27°C° 0.2 mm 1 mps 726 mmHg 62%
    14:00 +27°C° 0.7 mm 2 mps 726 mmHg 65%
    15:00 +26°C° 0.7 mm 2 mps 725 mmHg 69%
    16:00 +25°C° 0.7 mm 2 mps 725 mmHg 73%
    17:00 +24°C° 0.5 mm 2 mps 725 mmHg 79%
    18:00 +23°C° 0.5 mm 2 mps 725 mmHg 84%
    19:00 +20°C° 0.5 mm 2 mps 725 mmHg 90%
    20:00 +20°C° 0.1 mm 2 mps 725 mmHg 91%
    21:00 +19°C° 0.1 mm 2 mps 725 mmHg 93%
    22:00 +19°C° 0.1 mm 2 mps 725 mmHg 94%
    23:00 +19°C° 0 mm 2 mps 725 mmHg 95%
    Show more